Location: Newark
(49.8969°N, 3.3422°E)
Time: 20:25:06
(UTC+00:00)

Vanguard 1 Rocket - Pass Details

Date: 20 January 2020
Orbit: 650 x 4226 km, 34.3° (Epoch: 22 February)

Event Time Altitude Azimuth Distance (km) Brightness Sun altitude
Rises 10:55:59 0° 227° (SW) 4,662 11.4 18.6°
Reaches altitude 10° 10:58:47 10° 219° (SW) 4,044 11.3 18.7°
Maximum altitude 11:09:09 39° 156° (SSE) 3,500 11.9 19.1°
Drops below altitude 10° 11:27:02 10° 98° (E) 6,868 12.1 19.6°
Sets 11:33:43 0° 93° (E) 8,238 12.4 19.7°
